Flag for Norway Weather past 2 weeks in Kvernaland, Norway

Now
64 °F

Rain showers. Passing clouds.


Feels Like: 64 °F
Forecast: 51 / 61 °F
Wind: 6 mph from East

Location: Stavanger / Sola

Current Time: Sep 3, 2015 at 3:24:35 PM

Latest Report: Sep 3, 2015 at 2:00 PM


Visibility: 25 mi

Pressure: 29.71 "Hg

Humidity: 56%

Dew point: 48 °F

Location of KvernalandLocation

Historic Weather in Kvernaland — Graph

°F

Kvernaland temperature yesterday

Maximum temperature yesterday: 64 °F (at 6:00 PM)
Minimum temperature yesterday: 54 °F (at 8:00 AM)
Average temperature yesterday: 59 °F

Past Weeks' High & Low Weather Summary

 TemperatureHumidityPressure
High78 °F (Aug 23, 3:00 PM)95% (Aug 26, 1:00 AM)30.25 "Hg (Aug 26, 1:00 AM)
Low54 °F (Aug 31, 5:00 AM)35% (Aug 19, 3:00 PM)29.44 "Hg (Sep 2, 1:00 PM)
Average64 °F71%29.89 "Hg
* Reported Aug 19 2:00 PM — Sep 3 2:00 PM, Kvernaland, Weather by CustomWeather, © 2015

Note: Actual official high and low records may vary slightly from our data, if they occured in-between our weather recording intervals... More about our weather records

Advertising

Kvernaland weather history for previous 24 hours

 ConditionsComfort  
Time TempWeatherWind HumidityBarometerVisibility
2:00 PM
Thu, Sep 3
64 °FRain showers. Passing clouds.6 mph56%29.71 "Hg25 mi
1:00 PM63 °FPassing clouds.8 mph57%29.70 "Hg28 mi
12:00 PM64 °FSunny.7 mph56%29.69 "Hg22 mi
11:00 AM62 °FSunny.7 mph62%29.69 "Hg28 mi
10:00 AM60 °FLight rain. Passing clouds.5 mph68%29.66 "Hg25 mi
9:00 AM61 °FScattered clouds.5 mph67%29.65 "Hg31 mi
8:00 AM58 °FSunny.3 mph72%29.64 "Hg31 mi
7:00 AM58 °FPassing clouds.2 mph72%29.62 "Hg31 mi
6:00 AM59 °FPassing clouds.5 mph70%29.60 "Hg31 mi
5:00 AM57 °FRain showers. Passing clouds.1 mph76%29.60 "Hg31 mi
4:00 AM59 °FPassing clouds.3 mph66%29.59 "Hg31 mi
3:00 AM59 °FOvercast.5 mph67%29.59 "Hg31 mi
2:00 AM59 °FOvercast.6 mph67%29.59 "Hg31 mi
1:00 AM59 °FPassing clouds.3 mph70%29.58 "Hg31 mi
12:00 AM60 °FPassing clouds.6 mph66%29.56 "Hg31 mi
10:00 PM
Wed, Sep 2
60 °FPassing clouds.5 mph67%29.54 "Hg31 mi
9:00 PM60 °FPassing clouds.3 mph67%29.50 "Hg31 mi
8:00 PM62 °FPartly sunny.5 mph68%29.50 "Hg31 mi
7:00 PM63 °FRain showers. Sunny.3 mph72%29.47 "Hg19 mi
6:00 PM64 °FPassing clouds.3 mph71%29.47 "Hg25 mi
5:00 PM62 °FRain showers. Scattered clouds.5 mph77%29.47 "Hg16 mi
4:00 PM61 °FLots of rain. Partly sunny.5 mph75%29.47 "Hg13 mi
3:00 PM61 °FRain showers. Overcast.6 mph72%29.44 "Hg31 mi
Weather by CustomWeather, © 2015

See weather overviewHow to use our weather pages